This is the latest recevied weather packets stored in our database for station/object WA6OOO. If no packets are shown the sender has not sent any weather packets the latest 10 day(s).
| Time | Temp. | Humidity | Pressure | Rain* | Wind** | Luminosity | Snow |
|---|---|---|---|---|---|---|---|
| 1777912275 | 16.11° C | 65% | 1018.6 hPa | 0 mm | - | 512 W/m² | - |
| 1777911970 | 16.67° C | 64% | 1018.6 hPa | 0 mm | - | 336 W/m² | - |
| 1777911667 | 16.67° C | 62% | 1018.5 hPa | 0 mm | - | 357 W/m² | - |
| 1777911363 | 16.67° C | 61% | 1018.3 hPa | 0 mm | - | 473 W/m² | - |
| 1777911061 | 16.67° C | 65% | 1018.5 hPa | 0 mm | - | 443 W/m² | - |
| 1777910758 | 16.11° C | 68% | 1018.4 hPa | 0 mm | - | 404 W/m² | - |
| 1777910455 | 15.56° C | 75% | 1018.4 hPa | 0 mm | - | 431 W/m² | - |
| 1777910151 | 15.56° C | 73% | 1018.6 hPa | 0 mm | - | 430 W/m² | - |
| 1777909849 | 15.56° C | 74% | 1018.1 hPa | 0 mm | - | 408 W/m² | - |
| 1777909545 | 15.56° C | 75% | 1018.3 hPa | 0 mm | - | 391 W/m² | - |
| 1777909242 | 15.56° C | 76% | 1018.3 hPa | 0 mm | - | 308 W/m² | - |
| 1777908941 | 15.56° C | 78% | 1018.3 hPa | 0 mm | - | 392 W/m² | - |
| 1777908639 | 15° C | 78% | 1018.3 hPa | 0 mm | - | 105 W/m² | - |
| 1777908335 | 15.56° C | 78% | 1018.2 hPa | 0 mm | - | 181 W/m² | - |
| 1777908032 | 15.56° C | 80% | 1018 hPa | 0 mm | - | 245 W/m² | - |
| 1777907727 | 15° C | 80% | 1018 hPa | 0 mm | - | 222 W/m² | - |
| 1777907422 | 15° C | 81% | 1017.9 hPa | 0 mm | - | 220 W/m² | - |
| 1777907119 | 14.44° C | 82% | 1017.9 hPa | 0 mm | - | 144 W/m² | - |
| 1777906817 | 14.44° C | 82% | 1017.8 hPa | 0 mm | - | 202 W/m² | - |
| 1777906515 | 14.44° C | 82% | 1017.8 hPa | 0 mm | - | 192 W/m² | - |
| 1777906209 | 14.44° C | 81% | 1017.7 hPa | 0 mm | - | 117 W/m² | - |
| 1777905906 | 14.44° C | 79% | 1017.8 hPa | 0 mm | - | 189 W/m² | - |
| 1777905603 | 13.89° C | 78% | 1017.8 hPa | 0 mm | - | 207 W/m² | - |
| 1777905300 | 13.89° C | 76% | 1018.2 hPa | 0 mm | - | 176 W/m² | - |
| 1777904997 | 13.33° C | 79% | 1017.8 hPa | 0 mm | - | 159 W/m² | - |
* Rain latest hour (hover to see other rain measurements)
** Current wind speed in m/s (hover to see current wind gust speed)